Winston-Salem, NC

9:18 AM EST on November 19, 2019 (GMT -0500)
Smith Reynolds

Weather History for KINT - October, 2019

Change the Weather History Date:

Sunday, October 20, 2019

  Actual Average Record
Temperature  
Mean Temperature 60 °F -  
Max Temperature 71 °F 66 °F 84 °F (1984)
Min Temperature 51 °F 46 °F 24 °F (1981)
Degree Days  
Heating Degree Days 4    
Growing Degree Days 10 (Base 50)    
Moisture  
Dew Point 54 °F    
Average Humidity 90    
Maximum Humidity 100    
Minimum Humidity 65    
Precipitation  
Precipitation 1.64 in - - ()
Sea Level Pressure  
Sea Level Pressure 29.82 in    
Wind  
Wind Speed 12 mph (NNE)    
Max Wind Speed 16 mph    
Max Gust Speed 25 mph    
Visibility 6 miles    
Events Rain    
Averages and records for this station are not official NWS values.
T = Trace of Precipitation, MM = Missing Value Source: NWS Daily Summary

Daily Weather History Graph

Daily Weather History Graph

Search for Another Location

Airport or City:

Astronomy

Oct. 20, 2019 Rise Set
Actual Time 7:32 AM EDT 6:38 PM EDT
Civil Twilight 7:06 AM EDT 7:04 PM EDT
Nautical Twilight 6:36 AM EDT 7:34 PM EDT
Astronomical Twilight 6:06 AM EDT 8:04 PM EDT
Moon 11:53 PM EDT (10/20) 1:51 PM EDT (10/20)
Length of Visible Light 11h 58m
Length of Day
11h 06m
Waning Gibbous, 59% of the Moon is Illuminated
Oct 20
Waning Gibbous
Oct 21
Last Quarter
Oct 27
New
Nov 4
First Quarter
Nov 12
Full

Hourly Weather History & Observations

Time (EDT) Temp. Dew Point Humidity Pressure Visibility Wind Dir Wind Speed Gust Speed Precip Events Conditions
12:54 AM 52.0 °F 51.1 °F 97% 29.86 in 2.5 mi NE 13.8 mph 21.9 mph 0.22 in Rain Rain
1:26 AM 52.0 °F 51.1 °F 97% 29.85 in 3.0 mi NE 13.8 mph 21.9 mph 0.15 in Rain Rain
1:49 AM 51.8 °F 51.8 °F 100% 29.82 in 2.5 mi NE 12.7 mph 21.9 mph 0.27 in Rain Heavy Rain
1:54 AM 52.0 °F 51.1 °F 97% 29.81 in 3.0 mi NE 16.1 mph 24.2 mph 0.29 in Rain Rain
2:07 AM 51.1 °F 51.1 °F 100% 29.81 in 2.0 mi NE 12.7 mph 24.2 mph 0.10 in Rain Heavy Rain
2:13 AM 52.0 °F 51.1 °F 97% 29.81 in 1.8 mi ESE 11.5 mph 20.7 mph 0.16 in Rain Heavy Rain
2:22 AM 52.0 °F 51.1 °F 97% 29.80 in 2.5 mi NE 12.7 mph 19.6 mph 0.21 in Rain Rain
2:35 AM 52.0 °F 51.1 °F 97% 29.80 in 1.8 mi NE 13.8 mph 24.2 mph 0.33 in Rain Heavy Rain
2:49 AM 53.6 °F 51.8 °F 94% 29.79 in 2.0 mi NE 11.5 mph 19.6 mph 0.43 in Rain Heavy Rain
2:54 AM 53.1 °F 51.1 °F 93% 29.77 in 2.5 mi NE 12.7 mph 20.7 mph 0.45 in Rain Rain
3:05 AM 53.1 °F 52.0 °F 96% 29.80 in 3.0 mi NNE 10.4 mph - 0.03 in Rain Rain
3:14 AM 53.1 °F 52.0 °F 96% 29.79 in 2.0 mi NE 11.5 mph - 0.07 in Rain Rain
3:26 AM 53.1 °F 52.0 °F 96% 29.79 in 3.0 mi NE 6.9 mph - 0.09 in Rain Rain
3:54 AM 52.0 °F 51.1 °F 97% 29.78 in 5.0 mi NNE 10.4 mph - 0.13 in Rain Light Rain
4:46 AM 52.0 °F 51.1 °F 97% 29.78 in 1.8 mi NNE 11.5 mph - 0.14 in Rain Heavy Rain
4:54 AM 52.0 °F 51.1 °F 97% 29.76 in 1.0 mi North 15.0 mph - 0.28 in Rain Heavy Rain
5:04 AM 52.0 °F 50.0 °F 93% 29.77 in 3.0 mi NNE 11.5 mph 21.9 mph 0.04 in Rain Rain
5:29 AM 51.1 °F 50.0 °F 96% 29.77 in 3.0 mi NNE 13.8 mph 20.7 mph 0.17 in Rain Rain
5:54 AM 51.1 °F 50.0 °F 96% 29.75 in 3.0 mi North 13.8 mph 25.3 mph 0.22 in Rain Rain
6:42 AM 52.0 °F 50.0 °F 93% 29.77 in 9.0 mi NNE 16.1 mph 24.2 mph 0.04 in Rain Light Rain
6:54 AM 52.0 °F 50.0 °F 93% 29.76 in 10.0 mi North 13.8 mph 21.9 mph 0.04 in Rain Light Rain
7:54 AM 52.0 °F 50.0 °F 93% 29.75 in 8.0 mi North 13.8 mph - 0.01 in   Overcast
8:54 AM 53.1 °F 52.0 °F 96% 29.76 in 6.0 mi NNE 13.8 mph 20.7 mph 0.00 in   Overcast
9:54 AM 55.0 °F 53.1 °F 93% 29.78 in 8.0 mi North 12.7 mph - N/A   Overcast
10:54 AM 57.0 °F 55.0 °F 93% 29.80 in 4.0 mi North 12.7 mph 20.7 mph N/A   Overcast
11:08 AM 57.9 °F 55.9 °F 93% 29.82 in 2.5 mi North 12.7 mph - N/A   Overcast
11:24 AM 57.9 °F 55.9 °F 93% 29.82 in 2.5 mi North 10.4 mph - N/A   Overcast
11:36 AM 59.0 °F 55.9 °F 90% 29.83 in 5.0 mi North 10.4 mph - N/A   Overcast
11:49 AM 59.0 °F 57.2 °F 94% 29.83 in 4.0 mi North 12.7 mph - N/A   Overcast
11:54 AM 59.0 °F 57.0 °F 93% 29.81 in 4.0 mi North 11.5 mph - N/A   Overcast
12:54 PM 61.0 °F 57.9 °F 90% 29.83 in 4.0 mi NNW 8.1 mph - N/A   Overcast
1:54 PM 64.0 °F 59.0 °F 84% 29.82 in 10.0 mi NNW 6.9 mph - N/A   Overcast
2:54 PM 66.0 °F 57.9 °F 75% 29.82 in 10.0 mi NNW 9.2 mph - N/A   Overcast
3:47 PM 70.0 °F 57.9 °F 65% 29.85 in 10.0 mi NNW 10.4 mph - N/A   Mostly Cloudy
3:54 PM 70.0 °F 57.9 °F 65% 29.83 in 10.0 mi North 11.5 mph - N/A   Scattered Clouds
4:54 PM 69.1 °F 57.0 °F 65% 29.85 in 10.0 mi North 10.4 mph - N/A   Scattered Clouds
5:54 PM 66.9 °F 57.0 °F 70% 29.87 in 10.0 mi North 4.6 mph - N/A   Clear
6:54 PM 64.0 °F 57.9 °F 80% 29.89 in 10.0 mi North 3.5 mph - N/A   Clear
7:54 PM 60.1 °F 57.9 °F 93% 29.93 in 10.0 mi Calm Calm - N/A   Clear
8:54 PM 64.0 °F 57.9 °F 80% 29.94 in 10.0 mi NW 5.8 mph - N/A   Partly Cloudy
9:54 PM 62.1 °F 57.0 °F 84% 29.96 in 10.0 mi NNW 4.6 mph - N/A   Mostly Cloudy
10:54 PM 61.0 °F 55.9 °F 83% 29.98 in 10.0 mi North 8.1 mph - N/A   Clear
11:54 PM 57.9 °F 55.0 °F 90% 29.98 in 10.0 mi North 5.8 mph - N/A   Clear